(36579) = 1997 WC5 = 1999 FF57 = 2000 QT124

Discovered at Socorro on 2000-08-29 by LINEAR.

Orbit

Orbit type: Main Belt

Note: WebGL enabled browser required.

epoch2024-03-31.0
epoch JD2460400.5
perihelion date2020-11-26.11892
perihelion JD2459179.61892
argument of perihelion (°)203.57791
ascending node (°)55.57759
inclination (°)3.12291
eccentricity0.0561074
perihelion distance (AU)2.1705098
Tisserand w.r.t. Jupiter3.6
ΔV w.r.t. Earth (km/sec)9.2
semimajor axis (AU)2.2995304
mean anomaly (°)345.07896
mean daily motion (°/day)0.28264750
aphelion distance (AU)2.429
period (years)3.49
P-vector [x]-0.18863429
P-vector [y]-0.89212107
P-vector [z]-0.41053270
Q-vector [x]0.98101867
Q-vector [y]-0.15205206
Q-vector [z]-0.12034343
absolute magnitude16.19
phase slope0.15
uncertainty0
referenceMPEC 2024-F28
observations used1033
oppositions18
arc length (days)9296
first opposition used1997
last opposition used2023
residual rms (arc-secs)0.72
perturbers coarse indicatorM-v
perturbers precise indicator003Ek
first observation date used1997-10-29.0
last observation date used2023-04-12.0
computer nameMPCLINUX
JD of orbit computation2456966.892330
perihelion JD uncertainty (days)1.7339E-04
argument of perihelion uncertainty (°)8.9248E-05
ascending node uncertainty (°)7.4737E-05
inclination uncertainty (°)3.5572E-06
eccentricity uncertainty 2.7714E-08
perihelion distance uncertainty (AU)6.4119E-08
Minimum Orbit Intersection Distances (in AU)
for orbit epoch: 2460400.5, reference: E2024-G02
Mercury1.7043
Venus1.44437
Earth1.15557
Mars0.60853
Jupiter2.57661
Saturn6.61928
Uranus16.1255
Neptune27.427

Observations

1063 total observations over interval: 1997 10 29.27275 – 2023 04 12.164273
These data are available for download (format description).

Date (UT) J2000 RA J2000 Dec Magn Location Ref
1997 10 29.27275 02 49 33.25 +14 51 58.4   704 – Lincoln Laboratory ETS, New Mexico MPS 26657
1997 10 29.29301 02 49 31.66 +14 51 55.0   704 – Lincoln Laboratory ETS, New Mexico MPS 26657
1997 10 29.31334 02 49 30.41 +14 51 50.7   704 – Lincoln Laboratory ETS, New Mexico MPS 26657
1997 10 29.33387 02 49 28.77 +14 51 46.4   704 – Lincoln Laboratory ETS, New Mexico MPS 26657
1997 10 31.36393 02 47 20.14 +14 44 59.8   704 – Lincoln Laboratory ETS, New Mexico MPS 26657
1997 10 31.38010 02 47 19.15 +14 44 58.5   704 – Lincoln Laboratory ETS, New Mexico MPS 26657
1997 10 31.39661 02 47 18.11 +14 44 54.4   704 – Lincoln Laboratory ETS, New Mexico MPS 26657
1997 10 31.41602 02 47 16.56 +14 44 49.3   704 – Lincoln Laboratory ETS, New Mexico MPS 26657
1997 11 21.34018 02 25 59.21 +13 36 59.1 19.5 V 691 – Steward Observatory, Kitt Peak-Spacewatch MPS 222
1997 11 21.36230 02 25 57.96 +13 36 55.4 19.3 V 691 – Steward Observatory, Kitt Peak-Spacewatch MPS 222
1997 11 21.38442 02 25 56.79 +13 36 51.3 19.2 V 691 – Steward Observatory, Kitt Peak-Spacewatch MPS 222
1997 11 25.11800 02 22 50.27 +13 27 28.8 19.6 V 691 – Steward Observatory, Kitt Peak-Spacewatch MPS 222
1997 11 25.13962 02 22 49.19 +13 27 25.8 19.7 V 691 – Steward Observatory, Kitt Peak-Spacewatch MPS 222
1997 11 25.16341 02 22 48.01 +13 27 22.5 19.7 V 691 – Steward Observatory, Kitt Peak-Spacewatch MPS 222
1997 12 04.16783 02 16 45.69 +13 11 13.7 19.9 V 691 – Steward Observatory, Kitt Peak-Spacewatch MPS 25139
1997 12 04.19161 02 16 44.87 +13 11 11.5 20.3 V 691 – Steward Observatory, Kitt Peak-Spacewatch MPS 25139
1997 12 04.21345 02 16 44.13 +13 11 10.1 19.9 V 691 – Steward Observatory, Kitt Peak-Spacewatch MPS 25139
1999 03 20.20823 11 30 08.78 +08 30 56.8 18.6   704 – Lincoln Laboratory ETS, New Mexico MPS 4556
1999 03 20.22624 11 30 07.60 +08 31 01.4 18.9   704 – Lincoln Laboratory ETS, New Mexico MPS 4556
1999 03 20.26236 11 30 05.51 +08 31 10.6 19.3   704 – Lincoln Laboratory ETS, New Mexico MPS 4557
1999 03 23.25684 11 27 12.81 +08 45 42.4 18.5   704 – Lincoln Laboratory ETS, New Mexico MPS 4557
1999 03 23.27148 11 27 11.90 +08 45 48.8 18.9   704 – Lincoln Laboratory ETS, New Mexico MPS 4557
1999 03 23.28623 11 27 11.00 +08 45 49.2 18.5   704 – Lincoln Laboratory ETS, New Mexico MPS 4557
1999 03 23.30088 11 27 10.07 +08 45 54.3 18.5   704 – Lincoln Laboratory ETS, New Mexico MPS 4557
1999 03 23.31554 11 27 09.15 +08 45 58.4 18.8   704 – Lincoln Laboratory ETS, New Mexico MPS 4557
2000 08 29.28469 22 35 38.37 -14 51 12.9 18.1   704 – Lincoln Laboratory ETS, New Mexico MPS 18266
2000 08 29.29814 22 35 37.52 -14 51 17.1 18.9   704 – Lincoln Laboratory ETS, New Mexico MPS 18266
2000 08 29.31156 22 35 36.76 -14 51 20.7 18.5   704 – Lincoln Laboratory ETS, New Mexico MPS 18266
2000 08 29.32499 22 35 35.91 -14 51 24.2 18.5   704 – Lincoln Laboratory ETS, New Mexico MPS 18266
2000 09 01.20017 22 32 47.69 -15 05 51.2 18.6   704 – Lincoln Laboratory ETS, New Mexico MPS 18266
2000 09 01.21334 22 32 46.82 -15 05 55.0 19.0   704 – Lincoln Laboratory ETS, New Mexico MPS 18266
2000 09 01.22654 22 32 46.14 -15 05 59.5 18.8   704 – Lincoln Laboratory ETS, New Mexico MPS 18266
2000 09 01.23972 22 32 45.24 -15 06 04.2 18.3   704 – Lincoln Laboratory ETS, New Mexico MPS 18266
2000 09 04.30998 22 29 47.55 -15 20 22.3 18.2   704 – Lincoln Laboratory ETS, New Mexico MPS 18266
2000 09 04.32356 22 29 46.71 -15 20 25.3 19.4   704 – Lincoln Laboratory ETS, New Mexico MPS 18266
2000 09 04.33708 22 29 45.95 -15 20 28.2 18.7   704 – Lincoln Laboratory ETS, New Mexico MPS 18266
2000 09 04.35054 22 29 45.07 -15 20 33.0 19.3   704 – Lincoln Laboratory ETS, New Mexico MPS 18266
2000 09 24.18468 22 14 05.23 -16 16 27.1 18.4   704 – Lincoln Laboratory ETS, New Mexico MPS 19376
2000 09 24.20073 22 14 04.64 -16 16 28.8 19.2   704 – Lincoln Laboratory ETS, New Mexico MPS 19376
2000 09 24.21589 22 14 04.08 -16 16 28.6 19.3   704 – Lincoln Laboratory ETS, New Mexico MPS 19376
2000 09 24.23221 22 14 03.57 -16 16 29.3 19.5   704 – Lincoln Laboratory ETS, New Mexico MPS 19376
2000 09 24.24732 22 14 02.89 -16 16 31.3 19.2   704 – Lincoln Laboratory ETS, New Mexico MPS 19376
2001 12 15.304360 07 36 54.071 +25 09 46.49 19.75 V 645 – Apache Point-Sloan Digital Sky Survey MPS 81097
2001 12 15.307832 07 36 53.904 +25 09 47.22 20.62   645 – Apache Point-Sloan Digital Sky Survey MPS 81097
2001 12 17.38252 07 35 13.62 +25 17 20.2 20.2   704 – Lincoln Laboratory ETS, New Mexico MPS 43402
2001 12 17.39773 07 35 12.92 +25 17 21.9 20.0   704 – Lincoln Laboratory ETS, New Mexico MPS 43402
2001 12 17.41296 07 35 12.15 +25 17 24.1 19.8   704 – Lincoln Laboratory ETS, New Mexico MPS 43402
2001 12 17.42818 07 35 11.22 +25 17 28.3 20.0   704 – Lincoln Laboratory ETS, New Mexico MPS 43402
2001 12 18.38168 07 34 22.73 +25 20 57.9 19.5   704 – Lincoln Laboratory ETS, New Mexico MPS 43402
2001 12 18.39776 07 34 21.88 +25 21 01.3 19.6   704 – Lincoln Laboratory ETS, New Mexico MPS 43402
2001 12 18.41313 07 34 21.00 +25 21 04.5 19.5   704 – Lincoln Laboratory ETS, New Mexico MPS 43402
2001 12 18.43037 07 34 20.10 +25 21 08.5 19.5   704 – Lincoln Laboratory ETS, New Mexico MPS 43402
2001 12 18.44556 07 34 19.28 +25 21 11.2 19.5   704 – Lincoln Laboratory ETS, New Mexico MPS 43402
2001 12 19.46353 07 33 25.52 +25 24 55.8 19.1   704 – Lincoln Laboratory ETS, New Mexico MPS 43402
2001 12 19.47867 07 33 24.74 +25 24 59.4 19.4   704 – Lincoln Laboratory ETS, New Mexico MPS 43402
2001 12 19.49403 07 33 23.87 +25 25 02.3 19.4   704 – Lincoln Laboratory ETS, New Mexico MPS 43402
2001 12 19.50917 07 33 23.01 +25 25 05.1 19.3   704 – Lincoln Laboratory ETS, New Mexico MPS 43402
2001 12 19.52431 07 33 22.21 +25 25 08.4 19.5   704 – Lincoln Laboratory ETS, New Mexico MPS 43402
2002 01 08.30078 07 11 57.82 +26 32 42.2 18.9   704 – Lincoln Laboratory ETS, New Mexico MPS 48940
2002 01 08.31569 07 11 56.71 +26 32 44.9 19.1   704 – Lincoln Laboratory ETS, New Mexico MPS 48940
2002 01 08.33060 07 11 55.71 +26 32 46.9 18.9   704 – Lincoln Laboratory ETS, New Mexico MPS 48940
2002 01 08.36045 07 11 53.48 +26 32 51.6 18.8   704 – Lincoln Laboratory ETS, New Mexico MPS 48940
2002 01 14.23243 07 05 00.53 +26 47 47.9 19.2   704 – Lincoln Laboratory ETS, New Mexico MPS 48940
2002 01 14.24753 07 04 59.46 +26 47 50.7 19.5   704 – Lincoln Laboratory ETS, New Mexico MPS 48940
2002 01 14.26265 07 04 58.36 +26 47 52.2 19.6   704 – Lincoln Laboratory ETS, New Mexico MPS 48940
2002 01 14.28176 07 04 56.99 +26 47 55.6 19.3   704 – Lincoln Laboratory ETS, New Mexico MPS 48940
2002 01 14.29708 07 04 55.87 +26 47 57.6 19.5   704 – Lincoln Laboratory ETS, New Mexico MPS 48940
2002 01 18.24680 07 00 28.64 +26 55 59.9 19.4   704 – Lincoln Laboratory ETS, New Mexico MPS 48940
2002 01 18.28419 07 00 26.11 +26 56 04.6 19.7   704 – Lincoln Laboratory ETS, New Mexico MPS 48940
2002 01 18.29963 07 00 25.06 +26 56 05.5 19.8   704 – Lincoln Laboratory ETS, New Mexico MPS 48940
2002 01 21.22666 06 57 16.87 +27 01 00.8 19.5   704 – Lincoln Laboratory ETS, New Mexico MPS 48940
2002 01 21.24142 06 57 15.73 +27 01 03.4 19.7   704 – Lincoln Laboratory ETS, New Mexico MPS 48940
2002 01 21.25626 06 57 14.82 +27 01 04.3 19.8   704 – Lincoln Laboratory ETS, New Mexico MPS 48940
2002 01 21.27105 06 57 13.95 +27 01 06.3 19.7   704 – Lincoln Laboratory ETS, New Mexico MPS 48940
2002 01 21.28595 06 57 12.86 +27 01 07.6 19.6   704 – Lincoln Laboratory ETS, New Mexico MPS 48940
2002 02 06.23896 06 43 52.84 +27 13 02.6 18.7   704 – Lincoln Laboratory ETS, New Mexico MPS 48940
2002 02 06.25400 06 43 52.28 +27 13 02.7 19.6   704 – Lincoln Laboratory ETS, New Mexico MPS 48940
2002 02 06.26895 06 43 51.69 +27 13 02.5 19.5   704 – Lincoln Laboratory ETS, New Mexico MPS 48940
2002 02 06.28425 06 43 51.13 +27 13 02.5 19.4   704 – Lincoln Laboratory ETS, New Mexico MPS 48940
2002 02 06.29913 06 43 50.58 +27 13 02.7 19.5   704 – Lincoln Laboratory ETS, New Mexico MPS 48940
2002 02 07.23107 06 43 18.60 +27 13 03.0 19.3   704 – Lincoln Laboratory ETS, New Mexico MPS 48940
2002 02 07.24519 06 43 18.08 +27 13 03.0 19.5   704 – Lincoln Laboratory ETS, New Mexico MPS 48940
